Theta_e
325 327 333 333 331 330 329 328 327 325 324 324 323 322 322 323 322 322 323 323 323 324 325 323 323 322 322 322 321 321 321 322 321 324 327 332 342 341 341 343 346 344 348
326 327 334 331 331 330 329 328 326 324 324 323 322 322 321 321 321 321 321 321 322 323 323 322 321 320 320 320 320 320 320 318 319 322 324 335 338 337 338 340 342 343 346
326 328 329 331 331 330 329 327 325 324 323 322 321 320 320 320 320 320 320 320 320 321 321 321 319 319 318 319 319 318 317 318 319 320 323 326 328 333 333 337 339 342 344
326 328 328 331 330 329 327 326 324 323 322 321 320 319 319 318 318 318 318 318 319 319 319 319 318 317 317 317 317 317 317 318 318 320 315 329 327 331 331 332 335 338 339
326 326 327 331 329 328 326 325 323 322 321 319 318 318 318 316 317 315 316 316 315 316 317 315 316 317 317 316 316 315 315 316 318 317 317 323 323 326 328 327 327 333 335
326 326 329 331 329 327 325 323 322 321 319 316 317 316 316 316 316 314 311 313 313 313 314 314 315 316 314 313 312 312 313 313 316 307 316 323 321 326 325 324 324 326 330
325 326 326 330 328 325 325 323 321 320 317 315 316 316 315 314 312 314 311 310 311 311 313 316 315 313 311 310 310 310 310 311 306 306 310 318 320 324 323 322 322 322 325
325 325 325 328 327 325 323 322 320 318 314 316 316 314 313 311 313 310 310 312 311 312 312 313 312 310 309 308 308 308 309 309 306 306 306 315 320 321 320 319 319 320 321
325 324 324 323 324 326 324 321 318 317 314 315 314 312 310 310 309 309 310 312 310 309 308 310 310 309 309 306 306 306 307 309 305 306 311 313 320 319 317 316 317 318 319
324 324 323 322 321 320 320 321 318 315 314 315 312 310 309 308 308 308 308 309 305 307 308 309 309 308 308 306 306 306 305 308 304 304 311 312 318 316 313 312 314 315 317
321 323 323 321 321 319 318 319 317 315 315 314 311 310 309 309 308 310 310 306 304 303 305 309 307 307 307 307 308 308 308 302 302 304 308 315 316 315 315 314 310 312 314
318 319 321 321 320 318 316 316 316 314 313 313 313 311 310 312 310 306 307 306 305 304 306 310 309 307 307 302 303 308 302 302 302 302 305 312 313 313 314 316 311 311 312
319 318 318 322 321 317 316 315 315 314 315 315 318 315 315 312 311 308 306 305 304 306 305 307 306 304 304 302 302 302 303 302 301 302 305 308 308 308 312 315 313 313 312
317 318 316 316 320 321 317 317 318 316 318 317 316 316 314 312 311 309 307 307 307 305 304 304 303 304 302 303 302 302 302 301 300 301 303 305 304 303 307 311 316 314 313
316 317 316 316 318 320 321 319 319 318 316 317 317 316 314 312 311 309 308 307 307 306 305 303 303 303 302 302 302 302 301 301 301 300 301 305 304 303 303 308 312 316 315
314 315 317 315 318 319 317 318 317 316 318 315 315 315 315 312 312 310 309 308 307 306 305 304 302 302 301 302 300 301 301 300 301 301 300 301 305 304 303 305 308 312 315
313 314 316 317 319 319 318 317 316 316 313 314 314 316 313 313 312 311 309 308 307 307 306 304 302 302 301 301 300 300 300 300 300 301 300 300 301 306 305 304 305 308 312
312 313 315 314 317 318 318 318 315 314 315 314 314 315 315 314 313 310 308 308 308 307 305 303 302 301 300 300 298 299 298 299 300 300 299 299 299 300 304 305 305 306 308
311 313 314 316 316 317 317 316 316 315 314 314 314 313 314 313 312 309 307 307 307 304 304 303 302 301 299 298 298 298 299 297 298 299 299 299 299 299 299 306 306 305 306
313 315 314 315 315 315 315 316 314 313 313 314 313 311 312 311 310 308 306 306 306 303 302 302 301 301 299 298 300 298 297 298 297 297 298 299 298 299 300 300 300 301 305
315 315 314 314 314 312 311 311 310 310 312 312 311 312 311 310 309 308 306 304 303 301 301 302 301 300 298 298 295 295 295 297 297 297 297 297 298 299 299 300 300 300 302
312 314 315 315 315 313 311 312 312 308 308 309 310 309 311 310 309 307 304 302 302 300 300 301 300 297 297 298 294 292 289 292 297 298 297 298 297 298 300 301 300 301 302
311 311 311 312 313 314 313 310 308 308 307 305 306 307 306 306 306 306 304 302 301 301 298 298 299 298 294 296 297 293 286 286 291 295 296 295 296 298 299 301 301 301 302
311 314 314 312 311 311 311 307 306 305 303 303 303 303 304 305 304 304 303 302 301 300 298 298 299 297 296 294 294 297 295 293 288 289 293 295 296 298 299 300 300 301 301
311 310 312 310 309 309 310 308 304 302 301 301 301 301 301 302 303 303 302 300 300 300 298 298 297 297 297 294 293 292 293 293 292 289 287 291 295 297 299 300 301 300 302
308 310 309 307 304 305 305 304 303 301 300 299 298 297 297 297 298 299 301 300 301 300 298 298 298 297 296 295 295 293 292 291 289 288 288 289 291 295 298 299 300 301 302
Wind_Speed
17 17 18 19 18 18 18 17 16 15 15 15 14 13 13 13 13 13 13 13 12 12 13 13 13 12 12 12 12 11 11 11 10 9 7 6 11 13 14 16 17 14 13
20 17 19 19 19 19 18 17 16 14 15 14 13 13 12 12 13 13 12 12 11 12 12 12 12 12 13 13 13 13 13 12 10 8 6 4 14 15 14 15 16 13 16
20 17 17 19 19 19 18 16 15 14 14 13 12 12 12 12 12 13 12 11 11 11 11 11 11 12 12 12 13 14 14 13 10 9 9 3 9 14 12 14 15 16 17
19 16 16 20 20 18 18 16 15 14 14 12 11 11 11 11 10 11 11 11 10 11 10 12 11 11 12 12 14 15 16 15 14 14 7 2 11 14 14 14 14 16 17
17 15 16 19 19 18 17 15 14 14 13 11 10 10 10 10 9 10 10 10 9 9 10 10 10 11 12 13 14 15 16 17 19 15 2 8 9 12 14 15 14 15 16
16 16 17 18 18 17 16 14 14 13 12 10 9 9 8 8 8 9 7 8 8 8 8 8 8 12 11 12 14 15 16 17 21 3 7 11 9 11 13 13 13 13 14
18 15 16 18 16 16 16 14 13 12 10 8 9 9 8 8 5 7 6 6 7 7 8 8 10 9 10 12 13 13 15 16 12 9 1 9 8 11 11 11 12 13 14
17 14 15 18 17 15 15 14 12 11 10 8 8 8 7 6 7 6 5 6 6 7 6 6 6 7 9 11 12 11 12 14 11 7 5 6 10 11 9 9 11 12 13
17 14 12 12 13 15 14 14 12 11 9 9 8 7 6 6 5 4 4 6 6 5 3 2 3 5 7 9 9 9 11 11 8 7 7 5 10 9 8 8 9 10 11
13 12 12 12 11 10 9 14 12 10 10 9 7 6 5 5 6 5 4 5 4 4 3 2 3 4 7 9 9 9 9 11 7 7 7 5 9 7 5 5 8 8 9
10 11 10 10 10 10 9 10 11 11 9 8 7 6 5 5 7 8 8 5 3 1 2 1 2 7 10 11 11 11 8 4 6 2 4 10 9 6 4 2 4 6 7
12 11 10 9 9 10 10 9 7 8 7 7 8 8 6 2 4 4 6 7 6 4 5 6 7 9 10 6 4 9 3 4 4 2 3 9 7 5 4 7 0 3 5
10 9 11 7 7 8 11 7 6 6 6 6 6 8 3 2 4 4 5 4 4 8 5 7 6 6 2 4 5 5 5 6 4 2 6 8 7 2 4 6 2 2 2
14 12 12 9 5 5 7 7 7 6 5 4 5 5 2 3 4 3 2 2 3 5 2 4 2 1 3 3 3 3 4 3 3 3 5 8 6 2 4 6 7 3 2
12 12 12 10 5 3 3 3 2 2 3 3 5 6 3 3 2 1 2 1 2 3 2 2 3 3 0 3 4 4 4 4 3 2 2 7 6 5 5 7 7 7 5
12 12 10 11 6 3 4 3 2 2 1 2 2 4 6 2 3 3 3 3 3 3 3 2 2 2 3 4 4 4 5 3 4 3 3 2 8 7 7 9 8 8 6
11 11 9 9 7 5 5 3 2 2 3 2 4 5 6 5 4 4 3 4 4 3 3 2 2 3 4 5 6 5 4 5 5 5 4 3 4 11 9 8 10 10 9
11 12 7 7 7 3 3 2 2 4 3 3 3 3 7 7 7 5 4 4 4 3 3 3 3 4 4 4 3 3 3 3 5 5 3 3 4 2 9 12 10 11 10
14 12 7 3 7 5 4 2 4 5 3 3 4 4 4 5 6 5 4 4 4 4 4 4 4 4 3 3 4 4 4 4 4 3 5 6 5 3 3 10 11 10 12
12 8 6 5 7 5 4 3 4 4 4 5 4 5 6 4 5 4 4 5 5 4 4 4 5 4 4 4 5 5 3 3 4 4 5 4 5 6 5 5 5 5 13
14 10 8 4 1 3 6 7 4 8 5 3 3 6 4 4 4 5 4 4 4 5 5 6 4 6 4 3 2 4 4 6 6 5 4 4 5 5 6 5 3 4 7
8 5 5 4 6 7 2 4 5 2 3 4 5 8 11 9 7 6 5 5 5 4 5 6 6 4 3 5 4 3 4 5 7 8 5 5 6 4 5 7 6 6 4
3 2 5 6 7 9 6 3 3 3 3 7 9 7 4 5 5 6 7 6 6 4 4 5 5 7 5 4 5 5 1 4 4 3 5 3 5 4 4 4 6 5 5
5 3 6 6 5 4 4 3 6 7 9 6 6 6 5 6 6 6 5 6 6 5 6 6 6 4 5 6 4 5 4 2 0 3 2 4 4 3 5 3 5 6 5
1 1 4 6 8 7 6 5 4 6 6 7 7 8 7 6 7 7 7 8 8 6 7 7 6 5 6 4 5 3 4 4 5 2 4 3 3 4 5 4 4 5 5
4 5 6 7 8 8 7 7 7 7 7 7 7 8 8 8 6 6 7 6 7 10 10 9 9 9 7 5 5 4 4 4 4 3 4 3 4 4 4 4 4 3 4
Wind_Direction
128 131 135 131 124 120 116 112 106 103 94 89 84 80 76 73 70 65 60 55 53 53 51 48 45 38 36 31 27 22 16 8 351 351 358 357 62 51 37 34 33 41 42
124 135 136 132 128 125 122 116 111 108 97 96 90 85 81 76 73 65 58 53 51 50 49 45 41 36 34 30 26 22 12 352 341 342 345 74 64 55 40 39 36 40 37
126 130 138 137 132 131 126 121 116 113 106 97 94 90 84 80 76 66 62 53 50 49 47 48 42 39 38 33 31 18 2 354 349 339 322 261 72 64 51 46 40 38 39
128 137 135 136 136 132 127 126 119 116 106 102 98 95 91 85 81 70 64 58 51 47 45 48 43 40 41 35 23 13 1 356 343 326 297 106 86 65 53 55 46 38 38
139 134 134 136 133 132 128 126 122 115 116 110 106 102 101 88 91 72 63 60 53 47 46 46 46 52 44 32 21 8 2 350 334 316 309 59 81 62 60 53 46 41 34
123 124 134 137 135 134 131 134 124 120 114 111 108 105 94 81 89 78 61 62 55 46 46 42 59 45 38 28 16 6 357 349 330 332 38 84 76 69 58 53 49 49 48
118 130 136 136 141 137 137 130 128 125 116 117 108 101 103 94 84 91 63 60 55 46 42 61 52 43 31 21 11 2 351 343 335 322 95 98 94 79 63 53 48 44 43
130 133 138 140 138 144 139 130 129 126 123 121 135 104 101 82 72 71 67 59 66 40 43 51 48 36 22 11 359 351 339 336 324 306 333 91 100 88 67 51 47 42 36
119 130 138 142 146 137 132 135 136 135 134 120 108 106 113 115 106 94 77 68 45 14 22 36 48 11 355 348 344 331 322 320 318 303 46 63 109 89 70 48 38 39 36
138 151 151 144 149 143 142 142 144 145 145 132 122 129 141 162 161 156 143 99 47 21 356 36 33 333 318 314 309 309 308 301 277 300 74 59 76 91 70 34 20 26 32
142 149 147 152 154 149 144 150 150 151 153 148 154 185 205 218 189 155 107 126 117 48 305 176 266 282 290 288 267 276 294 277 346 51 77 81 73 48 23 351 12 16 26
160 150 142 157 154 150 152 140 163 163 174 191 186 181 218 148 76 58 155 171 178 198 213 214 240 264 281 264 194 254 259 23 297 47 92 90 73 42 2 343 113 9 26
171 158 153 155 148 178 125 172 172 174 184 197 189 193 183 68 169 202 167 183 176 209 216 201 215 238 259 26 346 348 8 321 289 34 125 111 102 29 345 335 311 254 46
186 154 148 152 160 214 151 189 176 180 179 158 169 151 271 193 201 192 268 0 209 166 182 205 267 50 96 252 266 280 298 299 323 359 130 123 126 166 282 299 312 297 284
155 146 147 142 169 218 191 229 153 124 149 186 137 162 200 307 324 285 275 329 325 328 308 224 248 264 29 271 231 222 272 275 282 295 135 166 161 178 237 261 277 304 294
142 139 135 139 154 127 272 82 59 7 79 86 299 163 165 190 303 314 298 256 233 222 243 233 291 347 347 333 319 249 232 265 299 302 307 166 203 199 219 234 249 264 284
138 135 125 129 147 161 250 117 267 250 205 269 213 185 169 180 221 235 267 269 272 270 241 223 250 262 231 243 245 235 224 241 222 243 238 253 224 216 217 226 236 243 255
136 122 136 164 150 180 201 201 259 252 206 250 268 233 191 187 193 213 244 258 263 248 238 235 212 229 240 241 244 256 277 251 223 216 214 238 268 239 208 219 225 230 240
118 122 144 132 141 175 230 300 250 275 297 271 272 280 255 203 199 196 216 257 282 281 249 232 239 208 248 268 280 268 224 226 268 263 225 214 218 250 246 215 215 222 229
93 104 91 77 42 32 345 306 251 272 249 226 228 244 251 235 221 196 209 228 230 246 267 253 223 229 213 238 264 280 311 265 213 227 249 240 225 216 214 239 183 214 226
45 36 35 31 245 221 220 228 267 249 248 256 249 252 259 243 216 222 219 228 241 234 236 250 242 218 239 240 263 288 266 260 243 222 240 258 256 223 200 202 224 211 202
47 28 346 291 244 223 211 237 256 314 307 312 314 297 277 253 240 220 216 222 239 258 262 227 223 252 238 207 208 232 277 287 233 212 196 217 235 240 214 190 212 234 201
44 307 280 275 252 248 253 259 315 319 323 288 269 270 289 286 258 217 211 209 213 225 247 249 230 211 223 252 230 163 278 251 320 165 159 199 234 201 262 228 187 236 247
227 241 237 272 294 269 271 255 251 259 264 281 290 293 298 301 290 275 252 225 209 205 218 236 246 239 212 223 240 224 187 179 355 329 177 196 264 187 253 245 189 193 228
293 69 3 345 313 306 309 310 304 298 296 300 295 293 299 296 290 271 251 236 220 210 211 216 242 238 226 214 206 222 226 189 220 175 299 203 197 208 224 199 260 178 211
1 15 346 329 315 324 323 318 311 296 291 291 291 291 282 268 265 277 268 254 236 219 212 208 213 222 237 224 206 221 197 183 179 173 243 292 267 212 193 190 214 190 195